User: anonymous   Login
Location: Newark
(36.1358°N, 115.1208°W)
Time: 09:33:50
(UTC+00:00)
Language:

Hubble Space Telescope - Orbit

View from above orbital plane
View from above orbital plane
View from above satellite
View from above satellite

Ground track
Ground track

The orbit data is extracted from the following two-line orbital elements,

1 20580U 90037B   21300.25344084  .00001124  00000-0  56883-4 0  9992
2 20580  28.4701 272.9117 0002784  47.1611 332.7625 15.09799685530936
Epoch (UTC): 27 October 2021 06:04:57
Eccentricity: 0.0002784
inclination: 28.4701°
perigee height: 535 km
apogee height: 539 km
right ascension of ascending node: 272.9117°
argument of perigee: 47.1611°
revolutions per day: 15.09799685
mean anomaly at epoch: 332.7625°
orbit number at epoch: 53093

The dashed part of the orbit path shows where the satellite is in the earth's shadow,  

DLR